THOR ABLESTAR DEB, 5786

Orbit data source: Space-Track

THOR ABLESTAR DEB, 5786 is space debris in LEO originally from a launch on Thu, 29 Jun 1961 UTC launched from the Air Force Eastern Test Range (AFETR). Debris objects in space refer to the collection of defunct objects orbiting the Earth. Examples of debris include non-operational satellites, rocket bodies, and fragments generated from explosions, collisions, or faulty payload assembly.

Loading next visibility...
Identifier
5786, 1961-015KA
Orbit
LEO
Country
Flag of USUS
Related business
Manufacturer
Unknown
Mission
Spacecraft
Bus & Motor
Unknown
Mass
Unknown
Launch date (UTC)
1961-06-29 (64 years ago)
Launch vehicle
Unknown
Launch site
Air Force Eastern Test Range (AFETR)
Object type
Payload
Rocket body
Debris
Shape & HBR
Unknown shape, 0.1 m
Radar Cross Section
Small (<0.1 m²)

Expand to show TLE details & history
Last TLE update: 3 days ago

TLE from 3 days ago
0 THOR ABLESTAR DEB
1 05786U 61015KA  25291.80899516  .00001475  00000-0  95557-3 0  9995
2 05786  67.1201 191.3285 0122089 333.7259  25.7666 14.01815217240725
Epoch: 2025-10-18T19:24Z
TLE epoch observation values (Epoch: 2025-10-18T19:24:57.181Z)
Latitude
-0.00005°
Longitude
-127.44447°
Altitude
809.941 km
Speed
7.489 km/s
True Right ascension
12h 45m 18s
True Declination
0° 00' 00"
Sunlit
Object was in daylight at epoch
Visualization orbit readout
Latitude
Unknown
Longitude
Unknown
Altitude
Unknown
Speed
Unknown
Apparent Right ascension
Unknown
Apparent Declination
Unknown
Sunlit
N/A
Visualization observer readout
Local Sidereal Time
06:08:53
Azimuth
Unknown
Elevation
Unknown
Doppler factor
Unknown
Orbital elements
Apogee altitude
974.55 km
Perigee altitude
797.179 km
Semi-major axis
7,264.001 km
Eccentricity
0.01221
Inclination
67.1201°
RAAN
191.3285°
Arg. of periapsis
333.7259°
True anomaly
26.38323°
Mean anomaly
25.7666°
Eccentric anomaly
26.07406°
Mean motion
3.50574 °/min
Orbital period
102.69 mins
BSTAR
0.00095557

Documentation

Showing up to 5 results
|